RH
11 12 13 16 17 19 23 27 52 92 72 59 70 77 88 79 96 100 100 92 93 75 63 75 74 58 44 31 28 32 27 25 26 26 25 25 23 22 25 29 33 29 26 24 22 20 18 17 18 19 21 23 26 26
11 12 13 15 18 20 22 25 60 83 81 50 54 58 72 81 86 100 100 99 92 86 58 59 85 64 60 38 28 32 31 27 30 32 34 37 40 33 33 22 23 24 29 30 26 24 22 22 21 21 22 24 26 27
11 12 14 15 18 19 20 24 49 75 73 54 56 56 66 69 95 100 100 100 93 87 79 54 67 86 66 61 38 30 34 31 31 34 39 41 44 45 41 38 31 27 26 24 25 30 28 26 25 26 26 27 28 30
12 13 15 16 17 18 21 26 44 83 98 76 54 50 59 69 97 100 100 100 92 96 95 70 52 77 93 68 64 41 36 37 34 37 41 44 46 45 45 41 39 43 38 33 33 32 26 24 26 29 29 30 30 31
12 15 16 16 18 20 21 27 37 91 92 99 66 56 54 69 75 87 98 100 99 84 97 90 58 53 74 94 74 74 45 38 37 38 37 39 41 45 49 49 51 44 42 41 39 35 31 32 37 37 32 28 25 26
13 15 16 18 19 22 22 25 30 53 93 100 95 65 62 76 72 90 73 100 92 87 79 92 73 64 62 79 100 85 83 50 41 38 40 41 40 43 45 46 49 52 52 48 44 39 36 35 36 38 41 50 54 57
13 16 16 18 21 22 22 22 27 36 92 91 100 74 77 75 62 69 74 96 100 100 90 100 95 73 69 65 87 100 92 86 70 53 49 51 49 47 48 45 52 55 53 54 59 58 53 48 42 40 49 51 54 56
14 16 17 18 20 22 21 22 28 49 92 94 100 81 79 76 61 73 68 82 100 100 74 85 100 97 87 83 66 84 98 90 90 97 74 59 62 65 63 71 68 66 67 71 70 67 73 79 84 87 82 82 79 73
14 16 17 17 19 23 23 24 30 37 72 98 97 97 80 76 69 95 95 100 80 100 96 74 98 100 89 85 78 64 67 89 96 89 87 96 85 73 77 77 82 83 78 78 80 81 83 89 95 96 87 75 73 75
14 15 17 18 21 24 26 28 30 31 36 82 91 95 83 87 81 97 91 96 91 83 88 94 88 100 98 77 71 75 68 68 76 84 88 92 96 100 99 96 100 100 100 100 100 100 100 99 90 83 81 82 80 82
15 16 17 18 20 25 28 28 28 30 31 42 76 94 100 100 100 97 82 89 94 84 99 100 100 100 100 97 82 71 74 74 75 73 73 77 86 98 94 98 99 96 96 96 89 83 84 87 94 99 100 99 98 98
15 16 16 18 20 23 25 27 30 31 32 37 45 72 92 100 100 82 79 92 83 84 100 100 100 100 100 100 100 82 71 73 80 83 79 84 77 88 87 87 85 81 73 72 68 69 76 84 86 81 83 85 86 80
15 15 16 17 18 20 22 24 28 32 40 38 34 37 66 96 99 82 80 93 91 100 92 100 100 100 100 100 100 100 79 77 81 82 97 94 88 100 100 100 99 99 93 98 96 95 97 95 99 100 100 100 100 100
16 15 15 16 16 18 19 22 25 31 44 38 40 39 48 68 85 84 86 87 84 81 85 100 100 100 100 100 100 100 98 97 88 95 100 74 78 91 100 100 100 100 100 100 100 100 100 100 100 100 100 100 99 99
16 16 16 16 16 17 18 20 25 28 32 35 44 44 37 49 73 83 85 90 88 80 80 96 100 100 100 100 100 100 100 88 99 100 93 97 90 92 92 92 89 96 100 100 100 100 100 98 92 85 81 68 65 68
15 16 16 16 16 16 18 20 23 27 28 30 40 50 48 49 48 68 72 80 86 89 89 77 84 99 100 100 95 100 100 100 100 98 93 96 100 99 100 100 100 100 100 100 95 96 99 100 100 100 98 98 98 97
15 14 16 16 16 16 17 19 23 29 28 27 26 35 51 47 46 53 55 62 73 80 86 78 68 85 84 90 100 100 100 100 100 95 87 90 88 87 88 91 90 93 97 98 96 94 90 90 91 93 98 100 100 100
13 14 14 14 15 15 15 16 17 21 28 31 32 32 38 41 42 45 43 48 62 66 72 73 84 85 86 96 100 100 100 98 91 81 75 79 90 89 92 88 92 91 93 100 100 100 100 100 100 97 96 100 100 96
13 13 13 12 12 13 14 14 15 16 18 22 28 29 28 30 36 35 36 33 31 33 39 54 66 69 74 77 84 86 87 88 81 75 74 75 82 96 100 97 92 87 98 100 100 90 87 99 99 99 100 100 100 100
14 13 11 11 11 11 12 13 14 15 16 17 20 20 20 20 23 25 28 28 28 30 32 39 48 54 63 71 68 66 67 70 75 76 76 78 81 86 87 86 88 89 94 96 92 84 78 87 93 94 99 99 85 76
14 13 12 11 11 11 11 12 12 14 15 16 18 18 17 16 15 18 21 23 25 27 32 40 40 40 37 41 46 50 58 62 61 66 73 73 71 72 76 75 76 85 82 74 71 68 69 74 72 75 71 65 57 56
14 14 13 12 12 12 13 13 13 13 13 13 14 14 14 13 12 12 13 18 22 25 26 30 29 25 24 25 29 40 49 53 63 67 70 69 69 69 67 61 63 67 66 62 63 64 58 51 50 53 56 47 41 39
14 14 12 11 12 13 14 13 13 13 12 12 11 12 13 11 10 10 11 15 20 22 20 22 28 27 29 30 29 31 40 50 54 59 62 66 62 60 63 70 66 58 54 52 44 39 41 40 39 37 34 33 35 34
12 13 12 12 11 11 12 12 12 11 11 10 10 10 11 11 10 11 13 14 14 14 18 24 28 29 28 31 33 36 36 32 32 35 39 40 41 45 41 38 39 41 37 33 33 32 36 38 37 36 35 33 31 28
10 11 10 10 10 10 9 10 11 11 10 10 10 11 12 13 14 14 15 14 13 15 16 18 19 22 26 29 32 36 38 39 39 40 40 35 30 30 32 30 28 29 31 32 32 30 28 28 29 28 23 21 17 14
8 8 9 9 9 8 8 9 10 10 10 10 10 10 11 12 13 15 16 17 16 17 19 21 22 23 26 28 29 28 26 24 24 24 24 24 24 26 26 26 28 28 28 28 26 24 22 21 18 15 14 13 13 12
8 9 9 10 10 10 10 9 9 9 9 10 10 10 10 10 10 11 12 14 15 17 18 19 21 22 21 22 25 25 26 25 23 22 20 20 20 20 19 18 17 16 15 14 14 14 13 12 12 12 12 11 11 11
9 9 8 8 9 9 10 10 10 10 10 10 9 10 10 10 10 10 11 11 11 12 13 13 13 14 14 15 16 16 16 15 15 14 13 13 12 12 12 12 12 12 12 12 12 12 12 12 11 10 10 9 9 9
9 10 10 9 9 9 9 9 10 10 10 11 10 10 10 9 10 10 10 10 10 11 11 11 11 11 12 12 12 13 13 12 12 11 11 11 11 11 11 11 11 11 10 10 10 9 9 8 8 8 8 8 8 9
8 9 10 9 9 8 8 9 9 9 9 10 10 11 11 11 10 10 10 10 10 9 9 9 9 9 9 9 10 9 9 9 9 9 9 9 9 9 9 9 8 8 8 8 8 8 8 8 8 8 8 9 9 9
5 6 7 9 9 9 8 8 8 8 8 9 9 10 9 10 10 10 10 10 10 10 9 10 10 10 10 9 9 9 9 9 8 8 8 8 8 8 8 8 8 8 8 8 8 8 8 8 8 8 8 8 8 8
5 6 6 7 8 8 9 9 8 8 7 8 8 8 8 8 8 8 8 8 8 8 9 9 9 9 8 8 8 8 8 8 7 7 7 7 6 6 7 7 7 7 7 7 7 8 8 8 8 8 7 7 6 6
5 5 5 6 6 7 8 9 9 9 9 8 8 8 8 8 8 8 8 8 8 9 9 8 8 8 8 8 8 8 8 7 7 7 7 7 7 7 7 7 8 8 7 7 7 7 6 6 6 6 6 5 5 6
Wind_Speed
82 87 89 91 89 83 87 85 90 89 81 74 72 70 64 61 53 48 44 40 37 30 27 25 21 21 14 10 7 6 6 9 14 19 24 29 33 38 42 47 46 38 31 24 18 14 14 16 21 26 31 38 48 55
82 86 87 89 88 87 88 85 89 92 85 77 73 70 67 61 55 51 48 42 41 35 31 26 26 24 19 15 12 8 5 3 6 11 16 20 25 29 33 35 38 43 44 36 28 22 16 13 16 20 25 30 37 44
81 82 86 89 90 88 87 88 88 93 88 81 77 73 71 65 60 55 51 47 44 40 36 30 30 25 25 20 17 15 11 7 4 4 9 13 17 20 22 26 30 33 36 38 39 36 27 21 17 15 17 23 28 33
76 79 86 90 89 87 87 88 88 96 90 87 82 77 74 69 65 60 55 52 48 43 40 37 33 31 27 27 22 20 18 14 12 8 6 8 10 13 15 16 18 22 24 26 29 31 30 31 30 23 17 15 17 21
74 78 85 88 88 88 85 87 89 95 97 92 87 84 80 73 67 63 59 56 54 47 43 42 39 35 32 29 30 27 24 21 19 16 13 12 11 10 10 12 13 13 13 15 16 18 18 18 19 19 17 16 14 10
75 77 81 87 90 88 85 86 90 90 98 97 92 87 83 78 72 67 61 60 59 53 45 44 44 41 36 34 32 32 31 28 25 23 22 20 18 16 14 15 14 13 13 13 12 12 11 11 10 8 7 6 5 6
73 76 79 85 88 88 85 84 88 90 97 99 97 91 85 83 79 73 66 65 63 59 54 46 46 45 42 42 39 36 34 35 32 30 28 26 25 22 22 21 20 19 18 17 17 17 17 17 16 16 17 18 20 22
74 77 79 81 85 88 87 87 89 89 95 100 99 94 92 87 83 79 75 70 67 66 60 50 47 47 47 46 44 43 39 36 38 37 35 32 32 30 26 30 27 26 24 24 25 25 25 25 25 25 26 28 31 32
74 75 77 80 84 87 90 89 90 89 91 96 102 97 98 91 89 84 81 78 74 70 66 56 53 55 53 50 48 47 45 43 41 38 37 38 39 38 33 34 35 34 34 33 33 33 33 34 36 38 39 39 39 41
74 76 77 80 83 85 89 90 90 91 90 93 99 102 102 97 91 92 91 87 81 77 70 66 62 58 59 55 53 51 49 48 48 47 43 41 40 41 45 41 40 41 40 40 41 41 42 43 44 45 45 44 44 45
74 76 78 80 82 85 88 89 88 90 91 92 95 101 103 101 100 98 97 91 86 78 73 73 75 69 64 62 60 56 52 53 51 51 49 50 48 45 46 44 44 42 42 43 43 43 42 43 43 45 47 49 51 53
73 77 79 81 83 85 87 90 91 91 93 93 91 94 100 105 107 103 100 92 87 82 78 78 77 75 70 67 67 63 58 54 54 55 53 55 52 51 51 51 50 48 46 45 47 48 49 50 51 53 54 56 58 61
71 75 78 80 82 85 87 89 91 95 95 95 93 94 97 102 108 109 102 95 89 85 84 84 82 78 77 74 74 71 65 58 57 56 55 62 58 55 53 53 52 50 50 51 52 54 55 56 57 59 60 62 63 66
68 72 76 78 81 82 85 88 90 95 99 98 96 96 98 101 101 99 98 96 92 93 88 88 89 87 86 82 81 79 72 66 62 59 62 66 62 62 60 58 58 57 57 58 58 59 61 63 64 65 67 69 72 75
65 68 72 76 77 80 83 86 90 94 100 100 97 98 97 97 96 95 95 96 97 95 93 92 93 90 90 89 87 84 78 72 67 66 69 71 69 67 67 67 67 65 65 66 68 70 71 73 74 76 77 80 82 84
63 66 69 73 77 79 82 84 88 95 98 103 102 99 95 94 92 93 93 92 95 96 95 97 96 94 95 96 91 88 85 81 78 77 75 75 74 74 73 74 74 73 74 75 76 78 79 81 83 85 87 88 90 93
63 64 67 70 73 77 80 82 86 89 96 99 97 100 101 96 93 90 92 95 96 97 98 98 99 99 98 96 94 92 85 85 86 87 84 82 82 78 79 81 81 81 82 82 83 84 87 89 91 93 95 97 99 101
63 63 66 69 72 75 78 80 83 86 89 92 95 99 101 102 99 94 91 93 96 97 99 100 101 101 97 92 93 96 95 94 93 90 89 86 84 83 84 84 83 83 84 83 84 90 94 96 97 98 99 100 102 105
61 63 65 66 70 73 76 79 79 80 84 90 95 97 96 98 100 98 96 94 92 92 93 96 98 96 96 97 98 100 101 99 97 94 92 90 89 90 89 89 91 92 93 93 96 96 96 99 104 106 107 108 109 110
62 64 64 65 68 70 72 74 78 80 85 88 92 96 97 95 94 94 93 91 91 91 91 90 88 90 96 97 97 98 98 96 95 94 93 95 96 97 96 96 96 96 96 99 104 106 105 105 107 106 105 108 111 114
59 60 59 61 65 67 68 72 75 79 83 86 89 92 92 91 90 91 91 90 88 87 89 92 91 91 91 91 90 90 91 92 91 92 96 98 100 101 102 102 100 101 103 105 106 106 104 104 105 106 107 110 110 110
57 58 58 59 62 65 68 72 74 77 81 83 85 87 86 84 81 83 83 84 84 88 89 91 88 84 81 82 84 87 89 90 92 92 93 94 95 96 97 97 98 99 99 100 101 102 102 101 101 100 103 103 100 100
56 57 57 58 60 65 68 70 72 74 76 78 79 81 81 79 77 73 71 78 86 88 82 80 82 80 79 81 80 82 86 90 90 91 93 95 95 96 98 101 101 102 101 100 99 95 97 97 98 98 97 98 99 99
54 57 59 60 60 62 65 66 67 69 72 73 73 73 74 74 71 68 70 74 77 73 73 78 81 82 81 82 81 82 84 82 81 83 86 88 91 95 96 97 98 98 96 95 93 92 93 96 98 98 98 97 96 94
53 55 57 56 56 59 60 61 63 65 66 67 68 68 69 69 68 66 68 73 69 69 69 69 69 72 76 79 80 81 83 81 82 84 87 87 84 84 87 89 87 89 91 91 91 91 89 89 91 91 90 90 90 90
46 50 51 52 52 53 53 56 58 58 58 60 63 67 69 66 65 68 74 73 69 66 66 68 69 71 73 74 77 78 77 75 76 79 82 77 78 79 80 81 82 83 84 86 87 87 86 85 86 86 87 86 85 84
39 42 45 48 49 50 51 52 53 54 55 58 61 62 60 62 66 68 70 69 67 67 68 68 70 72 72 73 75 75 76 75 75 76 76 75 74 75 77 78 79 81 82 83 83 83 82 81 80 78 77 76 77 76
36 38 40 43 45 47 49 50 51 53 55 57 57 57 59 62 63 62 63 64 65 67 68 69 70 71 73 73 74 75 75 75 76 77 76 75 75 74 75 75 75 75 75 75 75 75 75 75 74 72 70 69 68 70
33 34 36 38 40 42 44 47 49 51 53 54 55 56 58 58 58 59 60 60 62 64 65 66 67 68 68 68 69 70 72 72 71 71 71 70 69 69 70 70 70 69 69 69 69 67 66 65 64 65 65 64 62 60
32 33 34 36 37 39 40 42 44 47 48 50 53 55 56 57 57 57 58 58 59 59 59 60 60 61 62 62 63 63 63 63 64 63 63 62 62 62 62 62 62 62 62 61 60 60 59 59 59 59 58 56 55 55
28 31 32 33 35 36 37 38 39 41 42 45 47 49 51 52 52 53 54 54 54 54 54 54 54 55 56 57 57 58 58 58 57 56 56 56 55 56 56 56 56 56 55 54 54 54 54 54 54 53 51 51 51 52
23 25 27 29 31 32 33 34 35 36 38 39 41 42 43 44 45 45 46 46 46 46 47 48 50 50 50 50 50 50 50 50 51 51 50 49 49 49 49 49 48 49 49 49 49 49 50 50 49 49 49 49 47 45
21 23 25 26 27 28 30 31 32 32 34 34 36 37 37 37 37 37 38 39 40 40 41 42 42 42 43 43 43 44 45 44 44 44 44 43 43 43 43 44 44 44 44 45 47 47 47 46 45 45 44 42 39 37
Wind_Direction
209 210 210 211 211 210 208 207 204 206 210 211 212 214 217 219 223 227 230 236 238 236 238 242 249 236 240 256 258 298 344 23 35 39 41 41 41 47 50 49 51 57 62 68 79 96 123 146 158 170 188 198 203 206
207 208 208 208 209 209 209 207 204 204 208 210 212 213 215 218 217 224 228 234 234 232 233 240 244 239 232 237 244 250 276 335 31 32 33 34 38 41 46 51 54 54 57 63 71 81 97 121 153 170 180 192 203 210
206 206 207 206 208 208 208 206 203 203 206 210 213 214 216 211 218 222 226 232 234 232 233 236 240 244 234 231 235 242 247 253 271 338 13 20 25 35 41 46 53 60 61 61 61 66 77 92 112 138 167 185 197 207
203 204 206 205 206 207 207 204 204 203 206 210 214 214 215 214 218 222 225 230 233 234 235 233 235 238 244 233 232 237 240 244 248 259 297 337 353 7 18 32 42 49 56 61 64 65 66 68 73 84 106 141 172 191
202 202 205 205 205 206 207 203 205 206 206 209 213 215 215 216 216 220 223 228 233 232 234 236 233 235 240 244 234 234 238 239 241 249 258 276 298 316 333 346 357 13 30 36 42 47 57 66 73 77 78 79 80 88
202 203 204 204 205 207 207 205 206 207 209 209 213 215 215 216 218 219 222 226 231 235 232 239 237 233 237 241 244 238 237 239 242 244 249 257 266 275 283 296 310 322 334 341 348 356 3 6 4 12 16 13 357 331
201 201 204 204 204 207 208 208 208 209 208 208 212 215 217 219 221 219 221 223 230 233 234 233 239 239 236 239 240 243 242 238 240 244 246 250 255 261 270 274 282 289 297 301 303 308 312 314 313 314 313 310 306 304
201 201 204 205 205 207 208 209 208 209 209 209 212 214 217 219 220 221 222 225 227 233 234 232 235 242 240 238 238 240 243 245 244 243 245 246 251 253 254 266 269 275 279 281 285 291 292 293 293 291 291 291 292 293
201 202 204 206 204 205 208 209 210 210 209 212 212 214 217 219 221 222 224 226 227 229 232 234 237 240 243 243 241 242 242 244 247 247 248 249 249 252 250 249 264 269 272 275 278 280 283 285 286 287 289 290 291 291
202 202 203 204 204 205 209 210 211 212 212 213 214 215 218 220 223 224 226 227 228 228 231 235 240 244 246 245 246 245 245 247 250 250 250 251 253 255 257 258 257 262 266 271 274 277 279 281 283 285 289 290 291 290
204 204 205 205 206 207 209 212 213 214 214 215 215 217 217 221 224 225 226 226 227 228 230 236 240 243 247 247 247 245 247 246 249 252 253 253 251 253 256 258 260 260 263 267 270 273 276 278 281 283 285 286 286 285
205 206 207 208 209 210 211 213 216 216 216 217 216 217 218 221 223 225 224 224 226 227 230 234 238 243 244 247 249 247 246 247 248 251 253 258 257 257 258 259 261 264 267 268 269 270 271 273 276 278 279 280 281 282
206 207 208 209 211 212 213 213 216 217 218 219 219 218 219 220 223 224 225 225 228 229 228 232 235 238 240 245 246 247 248 248 248 249 252 255 255 256 258 260 263 265 268 269 271 273 274 276 277 277 278 279 280 282
207 208 209 210 211 213 213 214 216 218 221 222 220 221 220 220 223 223 225 228 230 228 228 232 236 238 241 243 245 247 249 247 247 247 250 254 255 255 254 256 259 261 262 263 265 268 270 272 273 275 279 280 281 282
208 210 211 211 212 212 213 214 215 218 221 223 222 223 224 222 223 225 225 227 230 231 229 231 235 238 241 244 245 246 248 247 246 247 248 252 255 256 256 257 258 259 261 264 266 267 269 271 272 274 277 279 281 283
210 211 212 213 214 214 214 214 216 217 221 222 223 225 225 227 224 226 226 228 230 231 233 234 234 236 239 242 244 245 246 247 247 249 250 251 254 256 258 258 258 260 261 263 266 268 270 272 273 274 277 279 280 282
213 213 214 214 215 215 215 216 215 217 221 223 223 224 225 228 229 227 227 228 230 233 235 236 236 238 241 242 245 244 245 248 250 251 252 254 253 254 257 258 260 263 265 267 269 271 272 273 273 274 276 278 280 282
215 215 216 217 217 217 217 218 219 218 219 223 224 223 225 228 230 230 231 231 232 234 237 238 240 241 241 240 241 243 245 246 247 250 252 252 253 256 258 259 261 263 264 268 271 272 272 273 274 276 277 279 280 281
216 217 219 220 220 220 219 219 220 220 221 223 225 226 226 227 230 231 231 232 233 234 236 238 240 242 243 242 242 243 244 246 249 252 252 251 254 257 259 260 261 263 263 265 268 271 271 272 273 275 277 279 280 282
221 221 221 221 222 223 222 221 221 221 223 224 227 229 229 229 230 231 232 231 232 234 236 240 242 243 243 244 245 246 246 248 250 252 253 254 256 258 259 260 260 262 264 264 266 270 272 271 273 275 276 278 280 282
221 223 225 225 224 224 224 224 223 223 223 225 227 229 230 231 231 230 231 233 233 234 237 240 241 242 244 245 247 248 250 251 252 252 253 255 257 259 259 261 262 263 265 267 269 270 270 271 273 274 276 279 281 283
219 221 221 223 225 226 226 226 225 225 226 226 228 230 232 234 233 232 232 233 236 237 237 239 241 244 246 248 249 250 251 252 253 255 257 258 260 260 262 265 265 266 268 269 270 271 272 274 277 279 279 281 284 285
216 219 219 220 221 222 224 227 227 227 227 228 229 231 233 234 235 235 233 235 236 238 239 241 245 247 249 250 249 249 250 251 253 254 255 257 259 261 262 263 265 266 268 270 272 274 276 278 279 281 282 284 285 287
215 218 219 219 220 222 223 225 227 229 230 231 232 234 236 237 237 236 237 239 238 236 238 240 243 246 248 250 251 252 253 253 253 254 255 256 258 258 260 262 264 266 269 272 274 276 276 278 279 281 282 283 285 286
215 219 221 221 222 224 225 225 227 230 231 233 234 235 237 238 238 239 240 239 237 237 238 238 239 240 243 245 247 249 250 252 254 255 256 256 259 262 264 266 268 269 271 273 274 275 275 275 276 278 280 283 285 287
218 221 223 225 225 226 227 228 229 231 232 233 235 235 236 236 237 237 239 240 240 239 239 241 242 243 245 248 250 252 253 253 253 254 255 257 258 260 262 264 265 267 268 269 270 272 273 275 278 281 283 285 287 287
217 220 222 225 226 227 227 228 229 231 232 234 235 236 237 238 237 238 240 241 243 244 244 244 246 247 248 250 253 255 256 257 258 260 262 264 265 264 264 265 266 268 270 272 274 276 277 279 280 282 283 283 283 283
217 219 222 224 226 228 229 229 230 230 232 234 235 237 237 237 238 240 241 243 243 245 246 247 248 250 251 253 254 257 259 260 260 261 263 264 266 268 268 269 269 270 271 273 275 276 277 279 280 282 282 282 282 281
217 218 222 224 226 227 229 230 231 232 233 235 236 237 239 240 241 242 243 244 245 246 247 249 250 252 254 255 256 257 258 259 261 261 262 264 265 266 267 268 269 270 271 272 273 275 277 277 278 278 278 279 282 286
219 220 221 223 224 225 227 228 230 232 233 235 236 237 238 239 241 242 243 244 245 246 248 250 251 253 254 255 257 258 259 260 261 263 264 264 265 265 266 267 268 270 271 272 273 274 275 275 276 278 279 282 282 282
222 223 224 225 226 227 228 228 229 230 231 234 237 238 240 241 243 243 245 246 247 248 250 251 252 253 254 255 256 258 259 260 261 262 263 263 263 264 264 265 267 268 270 271 270 271 271 272 272 274 276 277 277 279
227 230 231 231 232 231 232 233 233 233 233 234 236 238 238 240 241 243 245 247 248 249 249 250 250 252 254 255 256 258 259 260 261 262 263 263 263 264 264 264 265 265 265 265 267 268 269 270 271 273 275 277 282 286
230 229 228 228 230 232 235 236 236 236 236 236 237 239 241 242 242 243 244 245 245 246 247 249 250 252 253 254 254 254 255 255 256 258 259 260 261 262 262 263 263 264 265 265 265 266 268 272 275 278 280 282 283 283